This demonstration page uses our WeatherBlox Daily Observations layout. Learn more.

Left ArrowRight Arrow

39.51506, -84.39828

Hourly Observations for January 31, 2019

Temp ( °F °C ) Dew Point ( °F °C ) Humidity (%) Winds ( mph kmh ) Pressure ( in mb ) Visibility ( mi km ) Precip ( " mm )
12:15 am 00:15 Clear -3 -19.5 -12 -24.6 64 64 SW 5 7 30.50 1033 10 16 0.00 0.00
12:35 am 00:35 Clear -3 -19.5 -12 -24.4 65 65 SSW 6 9 30.50 1033 10 16 0.00 0.00
12:55 am 00:55 Clear -3 -19.4 -11 -23.8 68 68 SSW 7 11 30.50 1033 10 16 0.00 0.00
1:15 am 01:15 Clear -2 -19.1 -11 -23.8 67 67 SSW 6 9 30.50 1033 10 16 0.00 0.00
1:35 am 01:35 Clear -3 -19.5 -11 -23.9 68 68 SSW 6 9 30.50 1033 10 16 0.00 0.00
1:55 am 01:55 Clear -4 -20 -11 -23.9 71 71 SW 5 7 30.51 1033 10 16 0.00 0.00
2:15 am 02:15 Clear -3 -19.2 -10 -23.1 71 71 SW 8 13 30.51 1033 10 16 0.00 0.00
2:35 am 02:35 Clear -3 -19.6 -10 -23.3 73 73 SW 6 9 30.51 1033 10 16 0.00 0.00
2:55 am 02:55 Clear -3 -19.4 -10 -23.3 71 71 SW 8 13 30.51 1033 10 16 0.00 0.00
3:15 am 03:15 Clear -5 -20.3 -11 -24 72 72 WSW 5 7 30.52 1033 10 16 0.00 0.00
3:35 am 03:35 Clear -4 -20.2 -11 -23.8 73 73 SW 6 9 30.52 1033 10 16 0.00 0.00
3:55 am 03:55 Clear -5 -20.6 -11 -23.9 75 75 SW 5 7 30.52 1033 10 16 0.00 0.00
4:15 am 04:15 Clear -4 -20.2 -10 -23.5 75 75 SW 7 11 30.52 1033 10 16 0.00 0.00
4:35 am 04:35 Clear -4 -19.8 -10 -23.2 75 75 SW 7 11 30.51 1033 10 16 0.00 0.00
4:55 am 04:55 Clear -4 -20 -10 -23.3 75 75 SW 7 11 30.51 1033 10 16 0.00 0.00
5:15 am 05:15 Clear -4 -19.9 -10 -23.1 76 76 SW 8 13 30.52 1034 10 16 0.00 0.00
5:35 am 05:35 Clear -4 -20 -10 -23.2 76 76 SW 6 9 30.53 1034 10 16 0.00 0.00
5:55 am 05:55 Clear -5 -20.5 -11 -23.7 76 76 SW 5 7 30.53 1034 10 16 0.00 0.00
6:15 am 06:15 Clear -5 -20.3 -10 -23.6 75 75 SW 5 7 30.54 1034 10 16 0.00 0.00
6:35 am 06:35 Clear -5 -20.3 -10 -23.5 76 76 SW 6 9 30.54 1034 10 16 0.00 0.00
6:55 am 06:55 Clear -5 -20.4 -10 -23.6 76 76 SW 6 9 30.54 1034 10 16 0.00 0.00
7:15 am 07:15 Clear -5 -20.4 -11 -23.7 75 75 WSW 3 6 30.55 1034 10 16 0.00 0.00
7:35 am 07:35 Clear -5 -20.4 -10 -23.6 76 76 SW 6 9 30.56 1035 10 16 0.00 0.00
7:55 am 07:55 Sunny -3 -19.7 -9 -22.8 77 77 SW 6 9 30.55 1035 10 16 0.00 0.00
8:15 am 08:15 Sunny -3 -19.4 -9 -22.7 75 75 SW 7 11 30.55 1035 10 16 0.00 0.00
8:35 am 08:35 Sunny -2 -18.8 -9 -22.5 73 73 SW 6 9 30.56 1035 10 16 0.00 0.00
8:55 am 08:55 Sunny -1 -18.2 -8 -22.4 70 70 WSW 7 11 30.56 1035 10 16 0.00 0.00
9:15 am 09:15 Sunny 0 -17.6 -8 -22.3 67 67 SW 6 9 30.56 1035 10 16 0.00 0.00
9:35 am 09:35 Sunny 1 -17.4 -9 -22.9 62 62 WSW 9 15 30.57 1035 10 16 0.00 0.00
9:55 am 09:55 Sunny 2 -16.9 -8 -22.4 63 63 SW 7 11 30.57 1035 10 16 0.00 0.00
10:15 am 10:15 Sunny 3 -16.1 -7 -21.9 61 61 SW 10 17 30.56 1035 10 16 0.00 0.00
10:35 am 10:35 Sunny 4 -15.8 -7 -21.7 61 61 SW 12 19 30.57 1035 10 16 0.00 0.00
10:55 am 10:55 Sunny 4 -15.6 -7 -21.9 59 59 SW 8 13 30.57 1035 10 16 0.00 0.00
11:15 am 11:15 Sunny 5 -15 -6 -21.3 59 59 SW 7 11 30.57 1035 10 16 0.00 0.00
11:35 am 11:35 Sunny 5 -15.1 -7 -21.7 57 57 WSW 7 11 30.56 1035 10 16 0.00 0.00
11:55 am 11:55 Sunny 5 -14.8 -7 -21.5 57 57 SW 6 9 30.56 1035 10 16 0.00 0.00
12:15 pm 12:15 Sunny 6 -14.3 -5 -20.7 59 59 SW 8 13 30.56 1035 10 16 0.00 0.00
12:35 pm 12:35 Sunny 6 -14.5 -6 -21.3 57 57 W 10 17 30.55 1034 10 16 0.00 0.00
12:55 pm 12:55 Sunny 7 -13.9 -6 -20.9 56 56 WSW 6 9 30.55 1034 10 16 0.00 0.00
1:15 pm 13:15 Sunny 8 -13.6 -5 -20.5 56 56 SW 5 7 30.54 1034 10 16 0.00 0.00
1:35 pm 13:35 Sunny 9 -12.7 -4 -19.8 56 56 W 9 15 30.53 1034 10 16 0.00 0.00
1:55 pm 13:55 Sunny 9 -13 -5 -20.6 53 53 WSW 9 15 30.52 1034 10 16 0.00 0.00
2:15 pm 14:15 Sunny 10 -12.4 -4 -19.8 54 54 WSW 7 11 30.51 1033 10 16 0.00 0.00
2:35 pm 14:35 Sunny 10 -12.1 -3 -19.6 54 54 WSW 6 9 30.51 1033 10 16 0.00 0.00
2:55 pm 14:55 Sunny 11 -11.8 -4 -20.1 50 50 SW 7 11 30.50 1033 10 16 0.00 0.00
3:15 pm 15:15 Sunny 11 -11.8 -4 -20.2 50 50 W 5 7 30.49 1032 10 16 0.00 0.00
3:35 pm 15:35 Sunny 11 -11.4 -2 -19.1 53 53 S 9 15 30.49 1032 10 16 0.00 0.00
3:55 pm 15:55 Sunny 11 -11.4 -3 -19.6 51 51 SSW 8 13 30.48 1032 10 16 0.00 0.00
4:15 pm 16:15 Sunny 11 -11.4 -3 -19.6 51 51 SW 6 9 30.48 1032 10 16 0.00 0.00
4:35 pm 16:35 Sunny 12 -11.3 -3 -19.4 52 52 S 6 9 30.47 1032 10 16 0.00 0.00
4:55 pm 16:55 Mostly Cloudy 12 -11.2 -3 -19.5 51 51 SSW 6 9 30.49 1032 10 16 0.00 0.00
5:15 pm 17:15 Cloudy 12 -11.1 -3 -19.6 50 50 SW 3 6 30.48 1032 10 16 0.00 0.00
5:35 pm 17:35 Cloudy 12 -10.9 -3 -19.3 50 50 SSW 3 6 30.47 1032 10 16 0.00 0.00
5:55 pm 17:55 Cloudy 12 -10.9 -3 -19.6 49 49 Calm 30.48 1032 10 16 0.00 0.00
6:15 pm 18:15 Cloudy 13 -10.7 -2 -19.1 50 50 Calm 30.47 1032 10 16 0.00 0.00
6:35 pm 18:35 Cloudy 13 -10.5 -2 -19.1 50 50 Calm 30.47 1032 10 16 0.00 0.00
6:55 pm 18:55 Cloudy 13 -10.5 -2 -19 50 50 Calm 30.47 1032 10 16 0.00 0.00
7:15 pm 19:15 Cloudy 14 -10.2 0 -17.7 55 55 SE 5 7 30.45 1031 10 16 0.00 0.00
7:35 pm 19:35 Cloudy 14 -10.2 1 -17 58 58 SE 9 15 30.44 1031 10 16 0.00 0.00
7:55 pm 19:55 Cloudy 14 -9.9 1 -17 57 57 SSE 7 11 30.44 1031 10 16 0.00 0.00
8:15 pm 20:15 Cloudy 14 -9.9 3 -16.1 61 61 SSE 6 9 30.43 1031 10 16 0.00 0.00
8:35 pm 20:35 Cloudy with Light Snow 14 -10.1 4 -15.8 63 63 E 3 6 30.43 1031 10 16 0.00 0.00
8:55 pm 20:55 Cloudy 14 -10.2 4 -15.7 64 64 Calm 30.43 1031 10 16 0.00 0.00
9:15 pm 21:15 Cloudy with Light Snow 14 -10.1 5 -15.2 67 67 ENE 5 7 30.42 1030 7 11 0.00 0.00
9:35 pm 21:35 Cloudy with Light Snow 13 -10.6 7 -14.1 76 76 E 5 7 30.43 1030 2 3 0.00 0.00
9:55 pm 21:55 Cloudy with Light Snow 13 -10.7 8 -13.6 79 79 ENE 5 7 30.42 1030 3 5 0.00 0.00
10:15 pm 22:15 Cloudy with Light Snow 13 -10.8 8 -13.3 82 82 ENE 6 9 30.42 1030 3 4 0.00 0.00
10:35 pm 22:35 Cloudy with Light Snow 13 -10.7 8 -13.1 83 83 NE 8 13 30.40 1029 4 6 0.00 0.00
10:55 pm 22:55 Cloudy with Light Snow 13 -10.6 9 -12.9 83 83 NE 6 9 30.40 1029 3 5 0.00 0.00
11:15 pm 23:15 Cloudy with Light Snow 13 -10.6 9 -12.6 85 85 NE 6 9 30.40 1029 2 3 0.00 0.00
11:35 pm 23:35 Cloudy with Snow 13 -10.6 10 -12.4 87 87 NNE 5 7 30.40 1029 1 2 0.00 0.00
11:55 pm 23:55 Cloudy with Snow 13 -10.6 10 -12.3 87 87 NNE 6 9 30.40 1029 1 1 0.01 0.25

Powered by AerisWeather